www.pogodaiklimat.ru

Погода и климат >> Архив погоды >> Россия >> Красноярский край >> Игарка


АРХИВ ПОГОДЫ в Игарке

Время (UTC), дата Ветер
(напр.,м/с)
 
Видим.   Явления Облачность Т
(С)
Тd
(С)
f
(%)
Тe
(С)
Тes
(С)
Комфортность P
(гПа)
Po
(гПа)
Тmin
(С)
Tmax
(С)
R
(мм)
R24
(мм)
S
(см)
15 9.09 СЗ 3 10 км 9/8 600 м
[Cb cap Ac cuf]
+4.9 +0.8 75 +2 +2 1018.4 1014.9
18 9.09 СЗ 3 10 км 6/4 1000 м
[Sc Ac trans]
+3.0 +0.3 82 -1 -1 1016.7 1013.2
21 9.09 СЗ 1 10 км 9/9 1500 м
[Sc]
+3.1 +0.7 84 +2 +2 1015.3 1011.8
00 10.09 З 2 20 км 9/9 1500 м
[Sc]
+2.8 +0.4 84 -0 -0 1013.5 1010.0 +2.6
03 10.09 ЮЗ 2 20 км 9/9 600 м
[Sc]
+5.1 -0.8 66 +3 +3 1010.9 1007.4
06 10.09 Ю 4 20 км 9/9 1000 м
[Sc]
+6.0 0.0 65 +3 +3 1007.2 1003.8
09 10.09 Ю 5
{11}
10 км слаб. морось 9/9 300 м
[Frnb]
+5.5 +3.1 85 +1 +1 1003.3 999.9
12 10.09 Ю 6
{12}
10 км слаб. морось 9/9 300 м
[St]
+5.6 +4.4 92 +1 +1 1000.8 997.4 +6.4 0.4
15 10.09 Ю 4
{11}
10 км слаб. морось 9/9 300 м
[St]
+4.9 +4.0 94 +1 +1 998.3 994.9
18 10.09 Ю 4 10 км слаб. морось 9/9 300 м
[St]
+4.7 +4.0 95 0 0 996.5 993.1
21 10.09 З 4 10 км {морось} 9/9 300 м
[St]
+3.5 +2.8 95 -1 -1 995.2 991.8
00 11.09 СЗ 6
{14}
10 км слаб. снег {морось} 10/10 300 м
[Frnb Ns]
0.0 -0.6 96 -7 -7 998.9 995.4 0.3
03 11.09 СЗ 7
{14}
10 км слаб. ливневой снег 9/9 600 м
[Cb cap]
-0.4 -2.2 88 -8 -8 1000.6 997.1
06 11.09 З 5
{14}
20 км {ливн. осадки, снег} 9/9 600 м
[Cb cap]
+0.5 -2.8 79 -5 -5 1001.5 998.0
09 11.09 З 2
{11}
20 км в посл. час ливневой снег 9/8 600 м
[Cb cap Ac cuf Ci ing]
-0.6 -1.5 94 -4 -4 1001.6 998.1
12 11.09 СЗ 2 20 км {ливн. осадки} 9/8 600 м
[Cb cap Ac cuf Ci ing]
+0.3 -1.4 88 -3 -3 1002.1 998.6 +3.0 2
15 11.09 ЮЗ 2 4000 м слаб. ливневой снег 10/10 300 м
[Cb cap]
-0.7 -1.9 92 -5 -5 1000.2 996.7
18 11.09 В 3 10 км слаб. ливневой снег 10/10 300 м
[Cb cap]
-0.4 -1.3 94 -5 -5 998.7 995.2
21 11.09 С 2 10 км {ливн. осадки} 6/5 600 м
[Cb cap Ci ing]
-2.8 -4.1 91 -7 -7 1002.4 998.9
00 12.09 С 2 20 км {ливн. осадки} 3/1 1000 м
[Sc Ci fib]
-4.1 -5.0 93 -8 -8 1004.3 1000.7 -4.2 6 18
03 12.09 С 1 20 км 9/6 1000 м
[Cb cap Ac cuf]
+0.2 -1.5 88 -2 -1 1005.4 1001.9
06 12.09 С 2 20 км 8/8 1000 м
[Cb cap Ci ing]
+2.5 -2.4 70 -0 +1 1006.3 1002.9
09 12.09 СЗ 4 20 км {ливн. осадки} 9/8 1000 м
[Cb cap Ac cuf]
+3.1 +0.2 81 -2 -1 1007.6 1004.2
12 12.09 СЗ 3 20 км {ливн. осадки} 9/9 600 м
[Cb cap]
+2.8 +0.1 82 -1 -1 1008.0 1004.6 +3.8 0.0
15 12.09 СЗ 3 10 км 9/9 300 м
[Cb cap]
+2.7 +1.1 89 -1 -1 1007.8 1004.4
18 12.09 СЗ 4 10 км 9/9 300 м
[Cb cap]
+2.6 +1.8 94 -2 -2 1007.0 1003.6
21 12.09 С 5
{10}
10 км слаб. ливневой дождь 9/9 300 м
[Cb cap]
+1.8 +1.0 94 -4 -4 1006.9 1003.5
00 13.09 С 3
{10}
10 км слаб. ливневой дождь 9/9 300 м
[Cb cap]
+2.0 +1.7 98 -3 -3 1006.8 1003.4 +1.5 0.7
03 13.09 С 5 20 км {ливн. осадки} 9/9 300 м
[Cb cap]
+3.3 +1.8 90 -2 -2 1006.8 1003.4
06 13.09 СЗ 5
{11}
20 км {ливн. осадки} 9/9 300 м
[Cb cap]
+4.3 +2.6 89 -1 -1 1006.9 1003.5
09 13.09 СЗ 4 20 км 9/9 300 м
[Cb cap]
+4.6 +1.8 82 0 +1 1008.1 1004.7
12 13.09 С 3
{10}
20 км 9/9 300 м
[Cb cap]
+3.0 +0.7 85 -1 -1 1009.0 1005.5 +5.2 0.3
15 13.09 С 3 10 км 9/9 300 м
[Cb cap]
+1.6 -0.6 85 -3 -3 1009.3 1005.8
18 13.09 СЗ 3 10 км 9/9 300 м
[Cb cap]
+0.9 +0.1 94 -4 -4 1009.3 1005.8
21 13.09 СЗ 2 10 км {дождь} 9/9 300 м
[Cb cap]
+0.1 -0.7 94 -4 -4 1013.3 1005.7
00 14.09 СЗ 2 н/о {ливн. осадки} н/о -0.1 -0.9 94 -4 -4 1013.4 1005.9 -0.1 0.4
03 14.09 СЗ 3 10 км слаб. ливневой снег 9/9 300 м
[Cb cap]
+0.4 -0.2 96 -4 -4 1009.7 1006.2
06 14.09 З 3 4000 м слаб. ливневой снег 10/10 200 м
[Cb cap]
+1.1 +0.3 94 -4 -4 1010.2 1006.7
09 14.09 СЗ 2 10 км слаб. ливневой снег 10/10 300 м
[Cb cap]
+1.4 +0.6 94 -2 -2 1010.6 1007.1
12 14.09 СЗ 2 20 км {ливн. осадки} 9/9 300 м
[Cb cap]
+1.6 +0.8 94 -2 -2 1011.0 1007.5 +2.4 1
15 14.09 СЗ 3 10 км 9/9 300 м
[Cb cap]
+1.3 +0.2 92 -3 -3 1011.1 1007.6
18 14.09 СЗ 3 10 км 9/8 1000 м
[Cb cap Ac cuf]
-0.1 -1.2 92 -5 -5 1011.1 1007.6
21 14.09 СЗ 2 10 км 9/9 600 м
[Cb cap]
-0.1 -1.8 88 -4 -4 1011.2 1007.7
00 15.09 З 2 10 км слаб. ливневой снег 9/9 600 м
[Cb cap]
-0.4 -1.3 94 -4 -4 1011.6 1008.1 -0.5 0.0
03 15.09 СЗ 2 20 км {ливн. осадки} 9/9 600 м
[Cb cap]
+1.0 -1.9 81 -2 -2 1011.5 1008.0
06 15.09 СЗ 2 10 км слаб. ливневой снег 9/9 600 м
[Cb cap]
+1.8 -0.4 85 -2 -1 1011.9 1008.4
09 15.09 З 2 20 км {ливн. осадки} 9/9 600 м
[Cb cap]
+2.9 -1.0 75 0 0 1012.6 1009.1
12 15.09 СЗ 1 20 км {ливн. осадки} 9/9 1000 м
[Cb cap]
+2.7 -1.2 75 +1 +1 1013.2 1009.7 +3.5 0.7
15 15.09 СВ 1 10 км 9/9 1000 м
[Cb cap]
+0.9 -0.8 88 -1 -1 1013.7 1010.2
18 15.09 СЗ 1 10 км 9/9 1000 м
[Cb cap]
+0.6 -1.1 88 -1 -1 1013.8 1010.3
21 15.09 С 1 10 км 9/9 1000 м
[Sc]
-0.7 -1.9 92 -3 -3 1013.5 1010.0
00 16.09 В 2 20 км 9/9 1000 м
[Sc]
+0.2 -1.8 86 -3 -3 1013.2 1009.7 -1.6
03 16.09 ЮВ 3 20 км 9/9 300 м
[Cb cap]
+1.9 -2.1 75 -2 -2 1012.8 1009.3
06 16.09 ЮВ 4 20 км 9/9 300 м
[Frnb]
+1.7 -2.0 76 -3 -3 1011.7 1008.2
09 16.09 ЮВ 4 20 км 9/9 1000 м
[Sc]
+3.0 -2.1 69 -1 -1 1009.7 1006.2

 

Местоположение метеостанции Игарка (Красноярский край, Россия): широта 67.47 долгота 86.57 высота над уровнем моря 28 м.

В архиве по умолчанию представлена погода в Игарке за последнюю неделю. Архивные данные за месяц целиком и за предыдущие месяцы, начиная с января 2011 года, Вы можете получить, выбрав интересующий диапазон дат из раскрывающегося списка и нажав кнопку "Ввод!".


*Определитесь, кто Вы:
робот инопланетянин человек

Внимание! Время в таблицах - всемирное. Для получения местного времени необходимо прибавить поправку, которая равна 7 ч.

Смотрите также архив погоды в соседних городах и на ближайших метеорологических станциях:

Погода в Горбиачине (Красноярский край, Россия) (54 км)
Погода в Снежногорске (Красноярский край, Россия) (86 км)
Погода в Светлогорске (Красноярский край, Россия) (98 км)
Погода в Курейке (Красноярский край, Россия) (115 км)
Погода в Потапово (Красноярский край, Россия) (134 км)
Погода в Советской Речке (Красноярский край, Россия) (140 км)
Погода в Туруханске (Красноярский край, Россия) (197 км)
Погода в Норильске (Красноярский край, Россия) (219 км)
Погода в Большом Пороге (Эвенкия, Россия) (256 км)
Погода в Красноселькупске (Ямало-Ненецкий АО, Россия) (268 км)

Пояснения к столбцам:

Ветер - указаны скорость ветра в м/с - средняя за 10 мин, порывы в срок и между сроками (в фигурных скобках) и направление, откуда дует ветер: С - северный, СВ - северо-восточный, В - восточный, ЮВ - юго-восточный, Ю - южный, ЮЗ - юго-западный, З - западный, СЗ - северо-западный.
Видимость - горизонтальная дальность видимости в метрах или километрах. При видимости от 1 до 10 км при отсутствии осадков обычно наблюдается дымка, при ухудшении видимости до 1 км и менее - туман. В сухую погоду видимость может ухудшаться дымом, пылью или мглою.
Явления - указаны атмосферные явления, наблюдавшиеся в срок или в последний час перед сроком; фигурными скобками обозначены явления, наблюдавшиеся между сроками (за 1-3 часа до срока); квадратными скобками обозначены град или гололедные отложения с указанием их диаметра в мм.
Облачность - указаны через наклонную черту общая и нижняя облачность в баллах и высота нижней границы облаков в метрах; квадратными скобками обозначены формы облаков: Ci - перистые, Cs - перисто-слоистые, Cc - перисто-кучевые, Ac - высококучевые, As - высокослоистые, Sc - слоисто-кучевые, Ns - слоисто-дождевые, Cu - кучевые, Cb - кучево-дождевые. Подробнее классификацию облаков см. в Атласе облаков (PDF).
T - Температура воздуха - температура, измеренная на высоте 2 м над землей.
Td - Температура точки росы - температура, при понижении до которой содержащийся в воздухе водяной пар достигнет насыщения.
f - Относительная влажность воздуха - влажноcть воздуха, измеренная на высоте 2 м над землей.
Te - Эффективная температура - температура, которую ощущает одетый по сезону человек в тени. Характеристика душности погоды. При расчете учитывается влияние влажности воздуха и скорости ветра на теплоощущения человека.
Tes - Эффективная температура на солнце - температура, которую ощущает человек, с поправкой на солнечный нагрев. Характеристика знойности погоды. Зависит от высоты солнца над горизонтом, облачности и скорости ветра. Ночью, в пасмурную погоду, а также при ветре 12 м/с и более поправка равна нулю.
P - Атмосферное давление - приведенное к уровню моря атмосферное давление.
Po - Атмосферное давление - измеренное на уровне метеостанции атмосферное давление.
Tmin - Минимальная температура - минимум температуры воздуха на высоте 2 м над землей.
Tmax - Максимальная температура - максимум температуры воздуха на высоте 2 м над землей.
R - Количество осадков - Количество выпавших осадков за период времени, мм. При наведении курсора мыши на число - период времени, за который выпало указанное количество осадков.
R24 - Количество осадков - Количество выпавших осадков за 24 часа, мм.
S - Снежный покров - Высота снежного покрова, см. При наведении курсора мыши на число - состояние снежного покрова и степень покрытия местности в баллах.